E23BMY-13 Weather Reports


time (UTC)temp
C
wind
direction
speed
KPH
gust
KPH
rain 1hr
cm
rain 24hr
cm
rain mn
cm
humidity
%
barometer
mb
20260905181004 29 157 0.0 3.2 0.00 0.00 0.00 79 1009.6
20260905180530 29 157 0.0 3.2 0.00 0.05 0.00 79 1009.7
20260905180503 30 169 0.0 3.2 0.00 0.00 0.00 79 1009.6
20260905180003 30 154 0.0 3.2 0.00 0.00 0.00 78 1009.6
20260905175519 30 154 0.0 3.2 0.00 0.05 0.00 78 1009.8
20260905175503 30 151 0.0 3.2 0.00 0.00 0.00 78 1009.7
20260905175004 30 157 0.0 3.2 0.00 0.00 0.00 77 1009.7
20260905174527 30 157 0.0 3.2 0.00 0.05 0.00 77 1009.8
20260905174503 30 0.0 3.2 0.00 0.00 0.00 77 1009.7
20260905174004 30 167 0.0 3.2 0.00 0.00 0.00 77 1009.6
20260905173519 30 167 0.0 3.2 0.00 0.05 0.00 77 1009.8
20260905173504 30 158 0.0 3.2 0.00 0.00 0.00 77 1009.8
20260905173004 30 153 0.0 3.2 0.00 0.00 0.00 77 1009.9
20260905172526 30 153 0.0 3.2 0.00 0.05 0.00 77 1010.0
20260905172504 30 157 0.0 3.2 0.00 0.00 0.00 77 1010.0
20260905172004 30 149 0.0 3.2 0.00 0.00 0.00 77 1010.0
20260905171518 30 149 0.0 3.2 0.00 0.05 0.00 77 1010.1
20260905171504 30 154 0.0 3.2 0.00 0.00 0.00 77 1010.0
20260905171004 30 169 0.0 3.2 0.00 0.00 0.00 76 1010.2
20260905170608 30 169 0.0 3.2 0.00 0.05 0.00 76 1010.4
20260905170504 30 171 0.0 4.8 0.00 0.00 0.00 76 1010.3
20260905170003 30 186 0.0 4.8 0.00 0.00 0.00 76 1010.4
20260905165539 30 186 0.0 4.8 0.00 0.05 0.05 76 1010.6
20260905165503 30 161 0.0 3.2 0.00 0.00 0.00 76 1010.5
20260905165004 30 167 0.0 3.2 0.00 0.00 0.00 75 1010.6
20260905164527 30 167 0.0 3.2 0.00 0.05 0.05 75 1010.8
20260905164503 30 180 0.0 3.2 0.00 0.00 0.00 76 1010.7
20260905164004 30 172 0.0 3.2 0.00 0.00 0.00 76 1010.7
20260905163519 30 172 0.0 3.2 0.00 0.05 0.05 76 1010.8
20260905163503 30 166 1.6 3.2 0.00 0.00 0.00 76 1010.8
20260905163003 30 161 0.0 3.2 0.00 0.00 0.00 76 1010.7
20260905162526 30 161 0.0 3.2 0.00 0.05 0.05 76 1010.9
20260905162503 30 166 0.0 3.2 0.00 0.00 0.00 75 1010.8
20260905162004 30 189 0.0 3.2 0.00 0.00 0.00 75 1010.7
20260905161519 30 189 0.0 3.2 0.00 0.05 0.05 75 1010.9
20260905161503 30 183 0.0 3.2 0.00 0.00 0.00 75 1010.8
20260905161004 30 175 1.6 3.2 0.00 0.00 0.00 76 1010.9
20260905160527 30 175 1.6 3.2 0.00 0.05 0.05 76 1011.1
20260905160504 30 184 0.0 3.2 0.00 0.00 0.00 76 1010.8
20260905160003 30 184 0.0 3.2 0.00 0.00 0.00 75 1010.9
20260905155542 30 184 0.0 3.2 0.00 0.05 0.05 75 1011.0
20260905155504 30 178 0.0 3.2 0.00 0.00 0.00 75 1010.9
20260905155003 30 182 1.6 3.2 0.00 0.00 0.00 76 1010.8
20260905154527 30 182 1.6 3.2 0.00 0.05 0.05 76 1011.0
20260905154503 30 179 0.0 3.2 0.00 0.00 0.00 76 1010.8
20260905154003 30 166 0.0 3.2 0.00 0.00 0.00 76 1010.8
20260905153518 30 167 0.0 3.2 0.00 0.05 0.05 76 1011.0
20260905153503 30 186 0.0 3.2 0.00 0.00 0.00 77 1010.8
20260905153004 30 190 0.0 3.2 0.00 0.00 0.00 77 1010.7
20260905152522 30 190 0.0 3.2 0.00 0.05 0.05 77 1010.8
20260905152504 30 134 0.0 3.2 0.00 0.00 0.00 77 1010.7
20260905152003 30 178 0.0 3.2 0.00 0.00 0.00 77 1010.7
20260905151530 30 178 0.0 3.2 0.00 0.05 0.05 77 1010.9
20260905151504 30 172 1.6 3.2 0.00 0.00 0.00 77 1010.8
20260905151004 30 184 0.0 3.2 0.00 0.00 0.00 77 1010.7
20260905150523 30 184 0.0 3.2 0.00 0.05 0.05 77 1010.9
20260905150503 30 168 1.6 3.2 0.00 0.00 0.00 77 1010.7
20260905150003 30 175 1.6 3.2 0.00 0.00 0.00 77 1010.6
20260905145530 30 175 1.6 3.2 0.00 0.05 0.05 77 1010.8
20260905145504 29 177 1.6 3.2 0.00 0.00 0.00 77 1010.5
20260905145003 29 156 0.0 3.2 0.00 0.00 0.00 77 1010.4
20260905144522 29 156 0.0 3.2 0.00 0.05 0.05 77 1010.6
20260905144503 29 170 1.6 3.2 0.00 0.00 0.00 76 1010.4
20260905144003 29 174 0.0 3.2 0.00 0.00 0.00 77 1010.3
20260905143531 29 174 0.0 3.2 0.00 0.05 0.05 77 1010.5
20260905143504 29 167 1.6 3.2 0.00 0.00 0.00 77 1010.2
20260905143004 29 169 1.6 3.2 0.00 0.00 0.00 77 1010.0
20260905142522 29 169 1.6 3.2 0.00 0.05 0.05 77 1010.2
20260905142503 29 159 0.0 3.2 0.00 0.00 0.00 77 1009.8
20260905142003 29 178 0.0 3.2 0.00 0.00 0.00 77 1009.7
20260905141552 29 178 0.0 3.2 0.00 0.05 0.05 77 1009.9
20260905141504 29 179 1.6 3.2 0.00 0.00 0.00 78 1009.7
20260905141004 29 148 0.0 3.2 0.00 0.00 0.00 79 1009.7
20260905140523 29 148 0.0 3.2 0.00 0.05 0.05 79 1009.8
20260905140504 29 154 0.0 3.2 0.00 0.00 0.00 79 1009.5
20260905140004 29 181 0.0 3.2 0.00 0.00 0.00 78 1009.4
20260905135531 29 181 0.0 3.2 0.00 0.05 0.05 78 1009.6
20260905135503 29 166 1.6 3.2 0.00 0.00 0.00 79 1009.3
20260905135004 28 179 1.6 4.8 0.00 0.00 0.00 79 1009.3
20260905134522 28 179 1.6 4.8 0.00 0.05 0.05 79 1009.4
20260905134503 28 166 1.6 4.8 0.00 0.00 0.00 80 1009.2
20260905134004 28 168 1.6 4.8 0.00 0.00 0.00 80 1009.1
20260905133530 28 168 1.6 4.8 0.00 0.05 0.05 80 1009.3
20260905133504 28 162 0.0 3.2 0.00 0.00 0.00 82 1009.2
20260905133003 28 166 0.0 3.2 0.00 0.00 0.00 82 1009.2
20260905132522 28 166 0.0 3.2 0.00 0.05 0.05 82 1009.4
20260905132503 28 161 0.0 3.2 0.00 0.00 0.00 82 1009.1
20260905132003 28 186 0.0 4.8 0.00 0.00 0.00 82 1008.8
20260905131530 28 186 0.0 4.8 0.00 0.05 0.05 82 1009.0
20260905131504 28 158 0.0 4.8 0.00 0.00 0.00 83 1009.0
20260905131003 28 180 0.0 3.2 0.00 0.00 0.00 83 1009.4
20260905130543 28 180 0.0 3.2 0.00 0.05 0.05 83 1009.5
20260905130504 28 161 1.6 3.2 0.00 0.00 0.00 82 1009.3
20260905130004 28 125 0.0 3.2 0.00 0.00 0.00 82 1009.1
20260905125530 28 125 0.0 3.2 0.00 0.05 0.05 82 1009.2
20260905125503 28 166 0.0 4.8 0.00 0.00 0.00 82 1009.0
20260905125004 28 176 0.0 4.8 0.00 0.00 0.00 82 1008.9
20260905124543 28 176 0.0 4.8 0.00 0.05 0.05 82 1009.0
20260905124503 27 175 0.0 4.8 0.00 0.00 0.00 82 1008.9
20260905124003 27 172 0.0 3.2 0.00 0.00 0.00 82 1008.6
20260905123530 27 172 0.0 3.2 0.00 0.05 0.05 82 1008.8
20260905123503 27 154 0.0 3.2 0.00 0.00 0.00 83 1008.8
20260905123003 27 155 0.0 4.8 0.00 0.00 0.00 83 1008.9
20260905122522 27 155 0.0 4.8 0.05 0.05 0.05 83 1009.1
20260905122503 27 179 1.6 4.8 0.00 0.00 0.00 83 1009.1
20260905122003 27 168 0.0 4.8 0.00 0.00 0.00 85 1009.0
20260905121551 27 168 0.0 4.8 0.05 0.05 0.05 85 1009.2
20260905121503 27 167 0.0 3.2 0.00 0.00 0.00 86 1008.6
20260905121003 27 180 0.0 3.2 0.00 0.00 0.00 85 1008.5
20260905120522 27 180 0.0 3.2 0.05 0.05 0.05 85 1008.7
20260905120503 27 159 0.0 3.2 0.00 0.00 0.00 85 1008.5
20260905120004 27 166 0.0 3.2 0.00 0.00 0.00 85 1008.6
20260905115531 27 166 0.0 3.2 0.05 0.05 0.05 85 1008.7
20260905115504 27 163 0.0 3.2 0.03 0.00 0.00 86 1008.6
20260905115003 27 181 1.6 3.2 0.13 0.00 0.00 87 1008.4
20260905114522 27 181 1.6 3.2 0.05 0.05 0.05 87 1008.6
20260905114503 27 172 1.6 3.2 0.20 0.00 0.00 87 1008.4
20260905114003 27 167 1.6 6.4 0.18 0.00 0.00 85 1008.5
20260905113529 27 167 1.6 6.4 0.05 0.05 0.05 85 1008.6
20260905113504 28 157 1.6 6.4 0.08 0.00 0.00 82 1008.2
20260905113003 28 171 1.6 6.4 0.00 0.00 0.00 76 1008.3
20260905112542 28 171 1.6 6.4 0.00 0.00 0.00 76 1008.4
20260905112504 30 165 3.2 11.3 0.00 0.00 0.00 72 1008.5
20260905112003 31 206 3.2 11.3 0.00 0.00 0.00 69 1008.4
20260905111529 31 206 3.2 11.3 0.00 0.00 0.00 69 1008.5
20260905111503 32 163 3.2 8.0 0.00 0.00 0.00 66 1007.9
20260905111003 32 188 1.6 6.4 0.00 0.00 0.00 64 1007.6
20260905110521 32 188 1.6 6.4 0.00 0.00 0.00 64 1007.8
20260905110504 33 205 1.6 4.8 0.00 0.00 0.00 63 1007.2
20260905110004 33 178 1.6 4.8 0.00 0.00 0.00 62 1007.1
20260905105530 33 178 1.6 4.8 0.00 0.00 0.00 62 1007.2
20260905105503 33 171 1.6 4.8 0.00 0.00 0.00 62 1006.8
20260905105003 33 179 1.6 4.8 0.00 0.00 0.00 61 1006.5
20260905104521 33 179 1.6 4.8 0.00 0.00 0.00 61 1006.7
20260905104504 33 179 1.6 6.4 0.00 0.00 0.00 59 1006.5
20260905104003 34 173 1.6 6.4 0.00 0.00 0.00 58 1006.5
20260905103550 34 173 1.6 6.4 0.00 0.00 0.00 58 1006.6
20260905103503 35 176 1.6 6.4 0.00 0.00 0.00 56 1006.5
20260905103004 35 202 0.0 3.2 0.00 0.00 0.00 53 1006.3
20260905102521 35 202 0.0 3.2 0.00 0.00 0.00 53 1006.5
20260905102503 35 202 1.6 3.2 0.00 0.00 0.00 47 1006.2
20260905102003 36 200 0.0 3.2 0.00 0.00 0.00 46 1006.0
20260905101529 36 200 0.0 3.2 0.00 0.00 0.00 46 1006.2
20260905101503 35 200 0.0 3.2 0.00 0.00 0.00 46 1006.0
20260905101003 36 195 0.0 3.2 0.00 0.00 0.00 46 1006.1
20260905100542 36 195 0.0 3.2 0.00 0.00 0.00 46 1006.3
20260905100504 36 217 0.0 3.2 0.00 0.00 0.00 46 1006.1
20260905100003 36 166 0.0 3.2 0.00 0.00 0.00 46 1006.1
20260905095530 36 166 0.0 3.2 0.00 0.00 0.00 46 1006.2
20260905095504 36 197 0.0 3.2 0.00 0.00 0.00 47 1006.1
20260905095004 36 192 1.6 4.8 0.00 0.00 0.00 46 1006.1
20260905094603 36 192 1.6 4.8 0.00 0.00 0.00 46 1006.3
20260905094504 36 82 0.0 3.2 0.00 0.00 0.00 47 1005.9
20260905094004 35 171 0.0 3.2 0.00 0.00 0.00 47 1005.8
20260905093530 35 171 0.0 3.2 0.00 0.00 0.00 47 1006.0
20260905093504 36 232 0.0 3.2 0.00 0.00 0.00 46 1005.9
20260905093004 36 140 0.0 3.2 0.00 0.00 0.00 47 1005.8
20260905092525 36 140 0.0 3.2 0.00 0.00 0.00 47 1006.0
20260905092504 36 226 0.0 4.8 0.00 0.00 0.00 47 1005.8
20260905092003 36 226 0.0 4.8 0.00 0.00 0.00 47 1005.8
20260905091551 36 226 0.0 4.8 0.00 0.00 0.00 47 1005.9
20260905091504 36 142 0.0 4.8 0.00 0.00 0.00 48 1005.8
20260905091004 36 182 1.6 4.8 0.00 0.00 0.00 48 1005.8
20260905090525 36 182 1.6 4.8 0.00 0.00 0.00 48 1006.0
20260905090504 36 199 1.6 4.8 0.00 0.00 0.00 48 1005.9
20260905090004 36 205 1.6 4.8 0.00 0.00 0.00 48 1005.9
20260905085533 36 205 1.6 4.8 0.00 0.00 0.00 48 1006.1
20260905085503 36 175 1.6 4.8 0.00 0.00 0.00 48 1006.0
20260905085003 36 178 1.6 4.8 0.00 0.00 0.00 48 1006.0
20260905084523 36 178 1.6 4.8 0.00 0.00 0.00 48 1006.2
20260905084503 36 0.0 3.2 0.00 0.00 0.00 48 1006.1
20260905084003 35 142 0.0 3.2 0.00 0.00 0.00 48 1006.3
20260905083556 35 142 0.0 3.2 0.00 0.00 0.00 48 1006.5
20260905083503 35 166 0.0 3.2 0.00 0.00 0.00 49 1006.4
20260905083004 35 144 0.0 4.8 0.00 0.00 0.00 50 1006.4
20260905082528 35 144 0.0 4.8 0.00 0.00 0.00 50 1006.6
20260905082504 36 204 1.6 4.8 0.00 0.00 0.00 49 1006.5
20260905082004 36 156 0.0 3.2 0.00 0.00 0.00 49 1006.6
20260905081550 36 156 0.0 3.2 0.00 0.00 0.00 49 1006.8
20260905081503 35 120 1.6 4.8 0.00 0.00 0.00 49 1006.5
20260905081003 35 73 0.0 4.8 0.00 0.00 0.00 50 1006.6
20260905080542 35 73 0.0 4.8 0.00 0.00 0.00 50 1006.7
20260905080503 35 315 1.6 6.4 0.00 0.00 0.00 50 1006.7
20260905080004 35 181 1.6 6.4 0.00 0.00 0.00 50 1006.8
20260905075529 35 181 1.6 6.4 0.00 0.00 0.00 50 1006.9
20260905075503 35 128 0.0 3.2 0.00 0.00 0.00 50 1006.8
20260905075004 35 232 0.0 3.2 0.00 0.00 0.00 50 1006.9
20260905074543 35 232 0.0 3.2 0.00 0.00 0.00 50 1007.1
20260905074503 35 237 0.0 4.8 0.00 0.00 0.00 51 1006.9
20260905074003 35 285 1.6 4.8 0.00 0.00 0.00 50 1007.0
20260905073551 35 285 1.6 4.8 0.00 0.00 0.00 50 1007.2
20260905073503 35 190 1.6 3.2 0.00 0.00 0.00 50 1007.1
20260905073004 35 232 0.0 4.8 0.00 0.00 0.00 50 1007.1
20260905072527 35 232 0.0 4.8 0.00 0.00 0.00 50 1007.3
20260905072503 35 206 1.6 8.0 0.00 0.00 0.00 50 1007.2
20260905072003 35 204 1.6 4.8 0.00 0.00 0.00 50 1007.3
20260905071529 35 204 1.6 4.8 0.00 0.00 0.00 50 1007.4
20260905071504 35 213 1.6 6.4 0.00 0.00 0.00 50 1007.3
20260905071003 35 344 1.6 6.4 0.00 0.00 0.00 50 1007.4
20260905070521 35 344 1.6 6.4 0.00 0.00 0.00 50 1007.6
20260905070504 35 202 1.6 6.4 0.00 0.00 0.00 50 1007.5
20260905070004 35 173 1.6 3.2 0.00 0.00 0.00 50 1007.6
20260905065530 35 173 1.6 3.2 0.00 0.00 0.00 50 1007.8
20260905065503 35 243 0.0 4.8 0.00 0.00 0.00 50 1007.7
20260905065003 35 128 0.0 3.2 0.00 0.00 0.00 50 1007.8
20260905064548 35 128 0.0 3.2 0.00 0.00 0.00 50 1008.0
20260905064503 35 227 1.6 3.2 0.00 0.00 0.00 49 1007.9
20260905064003 35 226 0.0 3.2 0.00 0.00 0.00 47 1008.0
20260905063630 35 226 0.0 3.2 0.00 0.00 0.00 47 1008.2
20260905063503 35 212 0.0 3.2 0.00 0.00 0.00 49 1008.1
20260905063003 35 188 1.6 3.2 0.00 0.00 0.00 50 1008.3
20260905062521 35 188 1.6 3.2 0.00 0.00 0.00 50 1008.5
20260905062504 35 51 0.0 3.2 0.00 0.00 0.00 50 1008.5
20260905062004 35 73 1.6 6.4 0.00 0.00 0.00 51 1008.6
20260905061531 35 73 1.6 6.4 0.00 0.00 0.00 51 1008.8
20260905061503 35 284 1.6 6.4 0.00 0.00 0.00 50 1008.7
20260905061003 35 180 1.6 4.8 0.00 0.00 0.00 50 1008.9
20260905060521 35 180 1.6 4.8 0.00 0.00 0.00 50 1009.0
20260905060503 35 214 0.0 3.2 0.00 0.00 0.00 50 1009.0
20260905060003 35 207 1.6 4.8 0.00 0.00 0.00 50 1009.1
20260905055531 35 207 1.6 4.8 0.00 0.00 0.00 50 1009.2
20260905055503 35 189 1.6 4.8 0.00 0.00 0.00 50 1009.3
20260905055004 35 277 0.0 3.2 0.00 0.00 0.00 50 1009.4
20260905054524 35 277 0.0 3.2 0.00 0.00 0.00 50 1009.6
20260905054504 35 125 1.6 3.2 0.00 0.00 0.00 50 1009.6
20260905054004 35 147 0.0 3.2 0.00 0.00 0.00 51 1009.6
20260905053551 35 147 0.0 3.2 0.00 0.00 0.00 51 1009.8
20260905053503 34 106 1.6 4.8 0.00 0.00 0.00 52 1009.7
20260905053003 33 47 0.0 4.8 0.00 0.00 0.00 53 1009.8
20260905052521 33 47 0.0 4.8 0.00 0.00 0.00 53 1010.0
20260905052504 33 237 1.6 4.8 0.00 0.00 0.00 54 1009.9
20260905052004 33 204 1.6 6.4 0.00 0.00 0.00 53 1010.1
20260905051529 33 204 1.6 6.4 0.00 0.00 0.00 53 1010.3
20260905051503 34 170 1.6 6.4 0.00 0.00 0.00 53 1010.1
20260905051003 34 337 0.0 3.2 0.00 0.00 0.00 53 1010.2
20260905050549 34 337 0.0 3.2 0.00 0.00 0.00 53 1010.3
20260905050503 34 151 1.6 6.4 0.00 0.00 0.00 53 1010.2
20260905050004 34 134 1.6 4.8 0.00 0.00 0.00 53 1010.4
20260905045535 34 134 1.6 4.8 0.00 0.00 0.00 53 1010.5
20260905045504 34 235 1.6 3.2 0.00 0.00 0.00 53 1010.4
20260905045004 34 246 1.6 3.2 0.00 0.00 0.00 53 1010.5
20260905044518 34 246 1.6 3.2 0.00 0.00 0.00 53 1010.6
20260905044504 34 300 1.6 4.8 0.00 0.00 0.00 54 1010.6
20260905044004 33 279 0.0 3.2 0.00 0.00 0.00 55 1010.5
20260905043525 33 279 0.0 3.2 0.00 0.00 0.00 55 1010.7
20260905043504 33 196 1.6 4.8 0.00 0.00 0.00 55 1010.7
20260905043003 33 241 0.0 3.2 0.00 0.00 0.00 55 1010.9
20260905042517 33 241 0.0 3.2 0.00 0.00 0.00 55 1011.1
20260905042504 33 164 1.6 4.8 0.00 0.00 0.00 56 1010.8
20260905042004 33 209 1.6 4.8 0.00 0.00 0.00 56 1010.9
20260905041524 33 209 1.6 4.8 0.00 0.00 0.00 56 1011.1
20260905041504 33 177 0.0 3.2 0.00 0.00 0.00 56 1011.0
20260905041003 33 161 0.0 4.8 0.00 0.00 0.00 57 1011.0
20260905040518 33 161 0.0 4.8 0.00 0.00 0.00 57 1011.2
20260905040504 33 83 1.6 4.8 0.00 0.00 0.00 57 1011.0
20260905040004 32 213 0.0 4.8 0.00 0.00 0.00 58 1011.0
20260905035521 32 213 0.0 4.8 0.00 0.00 0.00 58 1011.2
20260905035504 32 179 1.6 4.8 0.00 0.00 0.00 58 1011.0
20260905035004 32 167 1.6 4.8 0.00 0.00 0.00 59 1011.1
20260905034529 32 167 1.6 4.8 0.00 0.00 0.00 59 1011.3
20260905034504 32 172 1.6 6.4 0.00 0.00 0.00 59 1011.2
20260905034004 32 221 1.6 4.8 0.00 0.00 0.00 59 1011.2
20260905033521 32 221 1.6 4.8 0.00 0.00 0.00 59 1011.4
20260905033504 32 226 1.6 4.8 0.00 0.00 0.00 59 1011.2
20260905033004 32 95 1.6 4.8 0.00 0.00 0.00 59 1011.2
20260905032529 32 95 1.6 4.8 0.00 0.00 0.00 59 1011.4
20260905032503 32 147 1.6 4.8 0.00 0.00 0.00 59 1011.3
20260905032003 32 219 1.6 6.4 0.00 0.00 0.00 59 1011.3
20260905031521 32 219 1.6 6.4 0.00 0.00 0.00 59 1011.5
20260905031503 32 50 1.6 6.4 0.00 0.00 0.00 59 1011.4
20260905031004 32 197 1.6 4.8 0.00 0.00 0.00 59 1011.4
20260905030529 32 197 1.6 4.8 0.00 0.00 0.00 59 1011.6
20260905030503 32 174 1.6 6.4 0.00 0.00 0.00 59 1011.5
20260905030003 32 155 1.6 6.4 0.00 0.00 0.00 60 1011.4
20260905025521 32 155 1.6 6.4 0.00 0.00 0.00 60 1011.6
20260905025503 32 175 1.6 4.8 0.00 0.00 0.00 61 1011.5
20260905025003 32 157 1.6 6.4 0.00 0.00 0.00 60 1011.5
20260905024529 32 157 1.6 6.4 0.00 0.00 0.00 60 1011.6
20260905024503 31 143 1.6 4.8 0.00 0.00 0.00 61 1011.4
20260905024003 31 200 1.6 4.8 0.00 0.00 0.00 61 1011.4
20260905023523 31 200 1.6 4.8 0.00 0.00 0.00 61 1011.6
20260905023503 31 148 1.6 6.4 0.00 0.00 0.00 62 1011.4
20260905023003 31 169 1.6 4.8 0.00 0.00 0.00 61 1011.4
20260905022528 31 169 1.6 4.8 0.00 0.00 0.00 61 1011.6
20260905022503 31 163 0.0 8.0 0.00 0.00 0.00 62 1011.4
20260905022003 31 194 3.2 8.0 0.00 0.00 0.00 61 1011.4
20260905021521 31 194 3.2 8.0 0.00 0.00 0.00 61 1011.6
20260905021504 31 184 1.6 6.4 0.00 0.00 0.00 61 1011.3
20260905021004 31 172 1.6 6.4 0.00 0.00 0.00 62 1011.3
20260905020549 31 172 1.6 6.4 0.00 0.00 0.00 62 1011.5
20260905020503 31 179 1.6 6.4 0.00 0.00 0.00 62 1011.3
20260905020004 31 200 1.6 6.4 0.00 0.00 0.00 62 1011.3
20260905015521 31 200 1.6 6.4 0.00 0.00 0.00 62 1011.5
20260905015504 31 186 0.0 6.4 0.00 0.00 0.00 63 1011.2
20260905015004 31 172 1.6 6.4 0.00 0.00 0.00 62 1011.2
20260905014550 31 172 1.6 6.4 0.00 0.00 0.00 62 1011.4
20260905014503 31 191 1.6 8.0 0.00 0.00 0.00 62 1011.1
20260905014003 31 198 1.6 6.4 0.00 0.00 0.00 63 1011.1
20260905013524 31 198 1.6 6.4 0.00 0.00 0.00 63 1011.3
20260905013503 30 166 1.6 4.8 0.00 0.00 0.00 64 1011.1
20260905013004 30 169 1.6 6.4 0.00 0.00 0.00 64 1011.1
20260905012529 30 169 1.6 6.4 0.00 0.00 0.00 64 1011.2
20260905012504 30 330 1.6 8.0 0.00 0.00 0.00 65 1011.0
20260905012004 30 100 1.6 4.8 0.00 0.00 0.00 65 1010.9
20260905011521 30 100 1.6 4.8 0.00 0.00 0.00 65 1011.1
20260905011503 30 170 1.6 6.4 0.00 0.00 0.00 65 1010.8
20260905011003 30 98 0.0 4.8 0.00 0.00 0.00 65 1010.7
20260905010528 30 98 0.0 4.8 0.00 0.00 0.00 65 1010.9
20260905010504 30 212 1.6 6.4 0.00 0.00 0.00 66 1010.7
20260905010004 30 135 1.6 4.8 0.00 0.00 0.00 66 1010.6
20260905005503 30 146 1.6 4.8 0.00 0.00 0.00 66 1010.5
20260905005004 30 140 1.6 4.8 0.00 0.00 0.00 66 1010.6
20260905004528 30 140 1.6 4.8 0.00 0.00 0.00 66 1010.8
20260905004504 30 153 1.6 4.8 0.00 0.00 0.00 67 1010.5
20260905004005 30 147 1.6 4.8 0.00 0.00 0.00 67 1010.4
20260905003520 30 147 1.6 4.8 0.00 0.00 0.00 67 1010.5
20260905003504 29 90 1.6 3.2 0.00 0.00 0.00 67 1010.2
20260905003004 29 167 1.6 4.8 0.00 0.00 0.00 67 1010.2
20260905002527 29 167 1.6 4.8 0.00 0.00 0.00 67 1010.3
20260905002504 29 103 1.6 4.8 0.00 0.00 0.00 67 1010.1
20260905002004 29 157 1.6 3.2 0.00 0.00 0.00 68 1010.0
20260905001523 29 157 1.6 3.2 0.00 0.00 0.00 68 1010.2
20260905001504 29 149 0.0 4.8 0.00 0.00 0.00 68 1009.9
20260905001003 29 128 1.6 4.8 0.00 0.00 0.00 68 1009.8
20260905000550 29 128 1.6 4.8 0.00 0.00 0.00 68 1010.0
20260905000503 29 146 0.0 3.2 0.00 0.00 0.00 68 1009.7
20260905000004 29 133 0.0 4.8 0.00 0.00 0.00 68 1009.8
20260904235521 29 133 0.0 4.8 0.00 0.00 0.00 68 1010.0
20260904235504 29 162 1.6 6.4 0.00 0.00 0.00 68 1009.7
20260904235003 29 194 1.6 4.8 0.00 0.00 0.00 68 1009.6
20260904234529 29 194 1.6 4.8 0.00 0.00 0.00 68 1009.8
20260904234504 28 172 1.6 3.2 0.00 0.00 0.00 68 1009.6
20260904234003 29 182 1.6 4.8 0.00 0.00 0.00 68 1009.6
20260904233541 29 182 1.6 4.8 0.00 0.00 0.00 68 1009.7
20260904233503 29 159 1.6 4.8 0.00 0.00 0.00 68 1009.5
20260904233003 29 143 1.6 3.2 0.00 0.00 0.00 68 1009.4
20260904232528 29 143 1.6 3.2 0.00 0.00 0.00 68 1009.6
20260904232504 29 132 1.6 4.8 0.00 0.00 0.00 68 1009.5
20260904232004 29 146 1.6 4.8 0.00 0.00 0.00 68 1009.3
20260904231543 29 146 1.6 4.8 0.00 0.00 0.00 68 1009.5
20260904231504 29 134 1.6 4.8 0.00 0.00 0.00 68 1009.2
20260904231004 29 115 1.6 3.2 0.00 0.00 0.00 68 1009.2
20260904230528 29 115 1.6 3.2 0.00 0.00 0.00 68 1009.3
20260904230503 29 76 0.0 3.2 0.00 0.00 0.00 68 1009.2
20260904230003 29 139 0.0 4.8 0.00 0.00 0.00 68 1009.2
20260904225520 29 139 0.0 4.8 0.00 0.00 0.00 68 1009.4
20260904225503 29 107 0.0 3.2 0.00 0.00 0.00 68 1009.1
20260904225003 29 132 0.0 3.2 0.00 0.00 0.00 68 1009.2
20260904224528 29 132 0.0 3.2 0.00 0.00 0.00 68 1009.3
20260904224504 29 156 1.6 4.8 0.00 0.00 0.00 68 1009.2
20260904224006 29 117 1.6 3.2 0.00 0.00 0.00 68 1009.2
20260904223520 29 117 1.6 3.2 0.00 0.00 0.00 68 1009.3
20260904223504 29 150 1.6 4.8 0.00 0.00 0.00 68 1009.1
20260904223003 29 116 1.6 4.8 0.00 0.00 0.00 68 1009.2
20260904222528 29 116 1.6 4.8 0.00 0.00 0.00 68 1009.3
20260904222504 29 156 1.6 4.8 0.00 0.00 0.00 68 1009.1
20260904222003 29 165 1.6 4.8 0.00 0.00 0.00 68 1009.0
20260904221540 29 165 1.6 4.8 0.00 0.00 0.00 68 1009.2
20260904221503 29 131 1.6 4.8 0.00 0.00 0.00 68 1008.9
20260904221004 29 164 1.6 3.2 0.00 0.00 0.00 68 1008.9
20260904220608 29 164 1.6 3.2 0.00 0.00 0.00 68 1009.0
20260904220503 29 144 1.6 4.8 0.00 0.00 0.00 67 1008.9
20260904220003 29 143 1.6 3.2 0.00 0.00 0.00 67 1008.7
20260904215528 29 143 1.6 3.2 0.00 0.00 0.00 67 1008.9
20260904215503 29 165 1.6 4.8 0.00 0.00 0.00 67 1008.7
20260904215004 29 138 0.0 3.2 0.00 0.00 0.00 67 1008.7
20260904214520 29 138 0.0 3.2 0.00 0.00 0.00 67 1008.8
20260904214504 29 125 0.0 3.2 0.00 0.00 0.00 67 1008.5
20260904214003 29 135 1.6 6.4 0.00 0.00 0.00 67 1008.5
20260904213528 29 135 1.6 6.4 0.00 0.00 0.00 67 1008.7
20260904213503 29 126 1.6 6.4 0.00 0.00 0.00 67 1008.4
20260904213003 29 142 0.0 4.8 0.00 0.00 0.00 67 1008.4
20260904212520 29 142 0.0 4.8 0.00 0.00 0.00 67 1008.6
20260904212503 29 157 0.0 4.8 0.00 0.00 0.00 66 1008.4
20260904212004 29 147 1.6 4.8 0.00 0.00 0.00 66 1008.3
20260904211527 29 147 1.6 4.8 0.00 0.00 0.00 66 1008.5
20260904211503 29 173 1.6 4.8 0.00 0.00 0.00 66 1008.3
20260904211004 29 145 1.6 4.8 0.00 0.00 0.00 67 1008.3
20260904210520 29 145 1.6 4.8 0.00 0.00 0.00 67 1008.5
20260904210503 29 116 0.0 4.8 0.00 0.00 0.00 67 1008.3
20260904210004 29 130 1.6 6.4 0.00 0.00 0.00 66 1008.3
20260904205527 29 130 1.6 6.4 0.00 0.00 0.00 66 1008.5
20260904205503 29 119 1.6 3.2 0.00 0.00 0.00 66 1008.4
20260904205004 29 0.0 3.2 0.00 0.00 0.00 66 1008.2
20260904204520 29 0.0 3.2 0.00 0.00 0.00 66 1008.4
20260904204503 29 157 1.6 3.2 0.00 0.00 0.00 66 1008.4
20260904204003 30 120 0.0 4.8 0.00 0.00 0.00 66 1008.4
20260904203530 30 120 0.0 4.8 0.00 0.00 0.00 66 1008.6
20260904203504 30 128 1.6 4.8 0.00 0.00 0.00 66 1008.4
20260904203003 30 130 0.0 4.8 0.00 0.00 0.00 66 1008.4
20260904202519 30 130 0.0 4.8 0.00 0.00 0.00 66 1008.5
20260904202503 30 182 0.0 4.8 0.00 0.00 0.00 66 1008.4
20260904202007 30 124 1.6 4.8 0.00 0.00 0.00 65 1008.5
20260904201544 30 124 1.6 4.8 0.00 0.00 0.00 65 1008.7
20260904201504 30 131 1.6 4.8 0.00 0.00 0.00 65 1008.5
20260904201004 30 148 0.0 3.2 0.00 0.00 0.00 65 1008.6
20260904200551 30 148 0.0 3.2 0.00 0.00 0.00 65 1008.7
20260904200504 30 177 0.0 3.2 0.00 0.00 0.00 66 1008.6
20260904200004 30 136 0.0 6.4 0.00 0.00 0.00 65 1008.8
20260904195522 30 136 0.0 6.4 0.00 0.00 0.00 65 1009.0
20260904195504 30 164 0.0 3.2 0.00 0.00 0.00 65 1008.7
20260904195003 30 149 0.0 3.2 0.00 0.00 0.00 66 1008.8
20260904194530 30 149 0.0 3.2 0.00 0.00 0.00 66 1008.9
20260904194503 30 145 0.0 3.2 0.00 0.00 0.00 65 1008.8
20260904194003 30 128 0.0 3.2 0.00 0.00 0.00 66 1008.9
20260904193522 30 128 0.0 3.2 0.00 0.00 0.00 66 1009.0
20260904193504 30 147 1.6 3.2 0.00 0.00 0.00 65 1008.9
20260904193004 30 130 1.6 4.8 0.00 0.00 0.00 65 1008.9
20260904192531 30 130 1.6 4.8 0.00 0.00 0.00 65 1009.1
20260904192503 30 96 0.0 3.2 0.00 0.00 0.00 65 1009.0
20260904192003 30 125 1.6 4.8 0.00 0.00 0.00 65 1009.0
20260904191518 30 125 1.6 4.8 0.00 0.00 0.00 65 1009.2
20260904191503 30 165 0.0 3.2 0.00 0.00 0.00 65 1009.1
20260904191004 30 169 1.6 3.2 0.00 0.00 0.00 65 1009.1
20260904190526 30 169 1.6 3.2 0.00 0.00 0.00 65 1009.3
20260904190504 30 215 1.6 4.8 0.00 0.00 0.00 65 1009.0
20260904190003 30 122 0.0 6.4 0.00 0.00 0.00 66 1009.1
20260904185518 30 122 0.0 6.4 0.00 0.00 0.00 66 1009.3
20260904185504 30 217 0.0 4.8 0.00 0.00 0.00 66 1009.2
20260904185004 30 274 0.0 4.8 0.00 0.00 0.00 66 1009.1
20260904184523 30 274 0.0 4.8 0.00 0.00 0.00 66 1009.3
20260904184503 30 171 1.6 4.8 0.00 0.00 0.00 66 1009.2
20260904184004 30 144 1.6 3.2 0.00 0.00 0.00 66 1009.2
20260904183531 30 144 1.6 3.2 0.00 0.00 0.00 66 1009.4
20260904183503 30 172 0.0 3.2 0.00 0.00 0.00 66 1009.2
20260904183003 30 189 1.6 4.8 0.00 0.00 0.00 66 1009.2
20260904182604 30 189 1.6 4.8 0.00 0.00 0.00 66 1009.3
20260904182503 30 194 0.0 4.8 0.00 0.00 0.00 66 1009.2
20260904182004 30 190 0.0 3.2 0.00 0.00 0.00 66 1009.3
20260904181531 30 190 0.0 3.2 0.00 0.00 0.00 66 1009.5
20260904181504 30 147 0.0 4.8 0.00 0.00 0.00 66 1009.2